Location: Gazon
(48.1318°N, 1.2708°W)
Time: 23:22:50
(UTC+00:00)

Cosmos 2026 Rocket - Pass Details

Date: 18 September 2020
Orbit: 940 x 1000 km, 82.9° (Epoch: 25 October)

Event Time Altitude Azimuth Distance (km) Brightness Sun altitude
Rises 19:55:43 0° 354° (N) 3,714 7.5 -17.9°
Reaches altitude 10° 19:58:22 10° 0° (N) 2,768 6.7 -18.3°
Maximum altitude 20:04:29 47° 74° (ENE) 1,299 4.3 -19.2°
Enters shadow 20:06:54 33° 125° (SE) 1,621 4.6 -19.6°
